Weather History for Everett, WA

Change the Weather History Date:

Thursday, February 23, 2012

  Actual Average Record
Temperature  
Mean Temperature 42 °F -  
Max Temperature 44 °F 51 °F 64 °F (1966)
Min Temperature 39 °F 35 °F 27 °F (1951)
Degree Days  
Heating Degree Days 24    
Moisture  
Dew Point 34 °F    
Average Humidity 76    
Maximum Humidity 81    
Minimum Humidity 65    
Precipitation  
Precipitation 0.00 in - - ()
Sea Level Pressure  
Sea Level Pressure 30.34 in    
Wind  
Wind Speed 7 mph (SSE)    
Max Wind Speed 10 mph    
Max Gust Speed -    
Visibility 10 miles    
Events Rain    
Averages and records for this station are not official NWS values.
T = Trace of Precipitation, MM = Missing Value Source: NWS Daily Summary

Daily Weather History Graph

Daily Weather History Graph

Search for Another Location

Airport:

Trip Planner

Search our weather history database for the weather conditions in past years. The results will help you decide how hot, cold, wet, or windy it might be!

Date:

Astronomy

Feb. 23, 2012 Rise Set
Actual Time 7:01 AM PST 5:43 PM PST
Civil Twilight 6:30 AM PST 6:15 PM PST
Nautical Twilight 5:54 AM PST 6:51 PM PST
Astronomical Twilight 5:18 AM PST 7:27 PM PST
Moon 7:18 AM PST 8:09 PM PST
Length of Visible Light 11h 44m
Length of Day
10h 41m
Waxing Crescent, 4% of the Moon is Illuminated
Feb 23
Waxing Crescent
Feb 29
First Quarter
Mar 8
Full
Mar 14
Last Quarter
Mar 22
New

Hourly Weather History & Observations

Time (PST) Temp. Windchill Dew Point Humidity Pressure Visibility Wind Dir Wind Speed Gust Speed Precip Events Conditions
12:53 AM 41.0 °F 35.2 °F 34.0 °F 76% 30.33 in 10.0 mi SSE 9.2 mph - N/A   Overcast
1:53 AM 39.9 °F 33.9 °F 33.1 °F 77% 30.35 in 10.0 mi South 9.2 mph - N/A   Mostly Cloudy
2:53 AM 39.0 °F 34.0 °F 33.1 °F 79% 30.36 in 10.0 mi SSE 6.9 mph - N/A   Scattered Clouds
3:53 AM 39.0 °F 34.8 °F 33.1 °F 79% 30.37 in 10.0 mi SSW 5.8 mph - N/A   Overcast
4:53 AM 39.0 °F 33.4 °F 33.1 °F 79% 30.38 in 10.0 mi South 8.1 mph - N/A   Scattered Clouds
5:53 AM 39.0 °F 32.3 °F 32.0 °F 76% 30.38 in 10.0 mi SSE 10.4 mph - N/A   Partly Cloudy
6:53 AM 39.0 °F 32.3 °F 33.1 °F 79% 30.38 in 10.0 mi SSE 10.4 mph - N/A   Overcast
7:53 AM 39.9 °F 33.9 °F 33.1 °F 77% 30.38 in 10.0 mi South 9.2 mph - N/A   Mostly Cloudy
8:53 AM 41.0 °F 35.2 °F 33.1 °F 73% 30.39 in 10.0 mi South 9.2 mph - N/A   Overcast
9:53 AM 42.1 °F 38.4 °F 33.1 °F 70% 30.39 in 10.0 mi South 5.8 mph - N/A   Mostly Cloudy
10:53 AM 44.1 °F 41.5 °F 33.1 °F 65% 30.39 in 10.0 mi South 4.6 mph - N/A   Mostly Cloudy
11:53 AM 43.0 °F 38.8 °F 36.0 °F 76% 30.40 in 10.0 mi WSW 6.9 mph - N/A   Mostly Cloudy
12:00 PM 42.8 °F 39.3 °F 35.6 °F 76% 30.39 in 10.0 mi WSW 5.8 mph - N/A   Mostly Cloudy
12:53 PM 43.0 °F - 35.1 °F 74% 30.40 in 10.0 mi Calm Calm - N/A   Mostly Cloudy
1:53 PM 42.1 °F 37.7 °F 36.0 °F 79% 30.39 in 10.0 mi SW 6.9 mph - 0.00 in Rain Light Rain
2:53 PM 44.1 °F 42.5 °F 34.0 °F 68% 30.37 in 10.0 mi East 3.5 mph - 0.00 in   Mostly Cloudy
3:53 PM 43.0 °F 40.3 °F 36.0 °F 76% 30.36 in 10.0 mi ESE 4.6 mph - N/A   Mostly Cloudy
4:53 PM 43.0 °F 39.5 °F 34.0 °F 71% 30.34 in 10.0 mi ESE 5.8 mph - N/A   Mostly Cloudy
5:53 PM 42.1 °F 39.2 °F 35.1 °F 76% 30.34 in 10.0 mi ESE 4.6 mph - N/A   Overcast
6:53 PM 42.1 °F 38.4 °F 34.0 °F 73% 30.33 in 10.0 mi ESE 5.8 mph - N/A   Overcast
7:53 PM 41.0 °F 38.0 °F 35.1 °F 79% 30.33 in 10.0 mi ESE 4.6 mph - N/A   Overcast
8:36 PM 41.0 °F - 35.6 °F 81% 30.30 in 10.0 mi Calm Calm - 0.00 in   Overcast
8:53 PM 41.0 °F - 35.1 °F 79% 30.31 in 10.0 mi Calm Calm - 0.00 in   Overcast
9:42 PM 41.0 °F 35.2 °F 35.6 °F 81% 30.29 in 10.0 mi South 9.2 mph - N/A   Overcast
9:53 PM 41.0 °F 35.8 °F 35.1 °F 79% 30.30 in 10.0 mi SSW 8.1 mph - N/A   Overcast
10:30 PM 41.0 °F 35.8 °F 33.8 °F 76% 30.28 in 10.0 mi South 8.1 mph - N/A   Overcast
10:44 PM 41.0 °F 35.8 °F 33.8 °F 76% 30.27 in 10.0 mi South 8.1 mph - N/A   Overcast
10:53 PM 41.0 °F 35.8 °F 34.0 °F 76% 30.28 in 10.0 mi SSE 8.1 mph - N/A   Overcast
11:13 PM 41.0 °F 35.2 °F 33.8 °F 76% 30.27 in 10.0 mi South 9.2 mph - N/A   Overcast
11:53 PM 41.0 °F 35.2 °F 34.0 °F 76% 30.28 in 10.0 mi South 9.2 mph - N/A   Overcast